| time (UTC) | temp C | wind direction | speed KPH | gust KPH | rain 1hr cm | rain 24hr cm | rain mn cm | humidity % | barometer mb |
| 20260906102524 | 34 | 0.0 | 0.0 | 0.00 | 0.00 | 0.00 | 49 | 1016.6 | |
| 20260906094024 | 34 | 0.0 | 0.0 | 0.00 | 0.00 | 0.00 | 52 | 1016.7 | |
| 20260906085524 | 33 | 0.0 | 0.0 | 0.00 | 0.00 | 0.00 | 58 | 1017.0 | |
| 20260906081025 | 34 | 0.0 | 0.0 | 0.00 | 0.00 | 0.00 | 36 | 1017.1 | |
| 20260906072524 | 32 | 0.0 | 0.0 | 0.00 | 0.00 | 0.00 | 39 | 1017.0 | |
| 20260906064024 | 31 | 0.0 | 0.0 | 0.00 | 0.00 | 0.00 | 41 | 1016.7 | |
| 20260906055524 | 29 | 0.0 | 0.0 | 0.00 | 0.00 | 0.00 | 46 | 1016.3 | |
| 20260906051024 | 27 | 0.0 | 0.0 | 0.00 | 0.00 | 0.00 | 50 | 1016.2 | |
| 20260906042524 | 26 | 0.0 | 0.0 | 0.00 | 0.00 | 0.00 | 50 | 1016.2 | |
| 20260906034024 | 26 | 0.0 | 0.0 | 0.00 | 0.00 | 0.00 | 49 | 1015.8 | |
| 20260906025524 | 26 | 0.0 | 0.0 | 0.00 | 0.00 | 0.00 | 47 | 1015.5 | |
| 20260906021024 | 26 | 0.0 | 0.0 | 0.00 | 0.00 | 0.00 | 46 | 1015.4 | |
| 20260906012524 | 27 | 0.0 | 0.0 | 0.00 | 0.00 | 0.00 | 45 | 1015.5 | |
| 20260906004024 | 27 | 0.0 | 0.0 | 0.00 | 0.00 | 0.00 | 45 | 1015.6 | |
| 20260905235524 | 27 | 0.0 | 0.0 | 0.00 | 0.00 | 0.00 | 42 | 1015.6 | |
| 20260905231024 | 28 | 0.0 | 0.0 | 0.00 | 0.00 | 0.00 | 40 | 1016.0 | |
| 20260905222524 | 28 | 0.0 | 0.0 | 0.00 | 0.00 | 0.00 | 43 | 1016.2 | |
| 20260905214024 | 28 | 0.0 | 0.0 | 0.00 | 0.00 | 0.00 | 41 | 1016.2 | |
| 20260905205524 | 29 | 0.0 | 0.0 | 0.00 | 0.00 | 0.00 | 41 | 1016.2 | |
| 20260905201025 | 30 | 0.0 | 0.0 | 0.00 | 0.00 | 0.00 | 39 | 1016.1 | |
| 20260905192524 | 30 | 0.0 | 0.0 | 0.00 | 0.00 | 0.00 | 38 | 1016.2 | |
| 20260905184026 | 30 | 0.0 | 0.0 | 0.00 | 0.00 | 0.00 | 37 | 1016.2 | |
| 20260905175524 | 31 | 0.0 | 0.0 | 0.00 | 0.00 | 0.00 | 37 | 1015.8 | |
| 20260905171024 | 31 | 0.0 | 0.0 | 0.00 | 0.00 | 0.00 | 36 | 1015.3 | |
| 20260905162526 | 31 | 0.0 | 0.0 | 0.00 | 0.00 | 0.00 | 33 | 1015.1 | |
| 20260905154024 | 32 | 0.0 | 0.0 | 0.00 | 0.00 | 0.00 | 33 | 1015.4 | |
| 20260905145524 | 33 | 0.0 | 0.0 | 0.00 | 0.00 | 0.00 | 32 | 1015.3 | |
| 20260905141024 | 35 | 0.0 | 0.0 | 0.00 | 0.00 | 0.00 | 32 | 1015.1 | |
| 20260905132524 | 35 | 0.0 | 0.0 | 0.00 | 0.00 | 0.00 | 33 | 1015.3 | |
| 20260905124024 | 35 | 0.0 | 0.0 | 0.00 | 0.00 | 0.00 | 32 | 1015.4 | |
| 20260905115524 | 35 | 0.0 | 0.0 | 0.00 | 0.00 | 0.00 | 34 | 1015.8 | |
| 20260905111024 | 35 | 0.0 | 0.0 | 0.00 | 0.00 | 0.00 | 34 | 1016.0 |